Skip Page Navigation
NASA JPL Caltech
NASA Logo - Jet Propulsion Laboratory + View the NASA Portal
+ Center for Near-Earth Object Studies
JPL Home Earth Solar System Stars & Galaxies Technology
JPL Solar System Dynamics
BODIES ORBITS EPHEMERIDES TOOLS PHYSICAL DATA DISCOVERY FAQ SITE MAP
IMPORTANT: The SSD Announcement email list is now available. Major changes are coming in the near future, including possible hostname and/or URL changes. To be notified of such changes, subscribe to this email list.

Please visit this page for more details.


JPL Small-Body Database Browser
Search: [ help ]  
(2008 KV2)
Classification: Aten [NEO, PHA]          SPK-ID: 3412755
Ephemeris | Orbit Diagram | Orbital Elements | Mission Design | Physical Parameters | Close-Approach Data ]

[ show orbit diagram ]
Orbital Elements at Epoch 2458600.5 (2019-Apr-27.0) TDB
Reference: JPL 36 (heliocentric ecliptic J2000)
 Element Value Uncertainty (1-sigma)   Units 
e .4119827732760443 1.3783e-07  
a .8500274743204 1.1619e-08 au
q .49983079808905 1.1276e-07 au
i 5.056464692999669 1.2136e-05 deg
node 67.00334566366692 3.9592e-05 deg
peri 347.6267255620905 7.5905e-05 deg
M 184.0275162117804 0.00010068 deg
tp 2458740.423330785963
(2019-Sep-13.92333079)
7.7282e-05 TDB
period 286.2515661458145
0.78
5.8691e-06
1.607e-08
d
yr
n 1.257635040559459 2.5786e-08 deg/d
Q 1.20022415055175 1.6406e-08 au
  Orbit Determination Parameters
   # obs. used (total)      154  
   data-arc span      4029 days (11.03 yr)  
   first obs. used      2008-05-28  
   last obs. used      2019-06-09  
   planetary ephem.      DE431  
   SB-pert. ephem.      SB431-N16  
   condition code      1  
   norm. resid. RMS      .44862  
   source      ORB  
   producer      Otto Matic  
   solution date      2019-Jun-15 10:26:50  

Additional Information
 Earth MOID = .0437946 au 
 Jupiter MOID = 4.14734 au 
 T_jup = 6.855 
[ show covariance matrix ]

Ephemeris | Orbit Diagram | Orbital Elements | Mission Design | Physical Parameters | Close-Approach Data ]

Physical Parameter Table
Parameter Symbol Value Units Sigma Reference Notes
absolute magnitude H 21.3   n/a MPO336490  

[ show close-approach data ]
Ephemeris | Orbit Diagram | Orbital Elements | Mission Design | Physical Parameters | Close-Approach Data ]
ABOUT SSD CREDITS/AWARDS PRIVACY/COPYRIGHT GLOSSARY LINKS
FirstGov 2019-Dec-07 19:25 UT
(server date/time)  
NASA Home Page
Site Manager:   Ryan S. Park
Webmaster  Alan B. Chamberlin